Terug naar catalogus

STARLINK-33535

ActiefCommunicatieVLEO
NORAD 63417·PAYLOAD·🇺🇸 United States

Gelanceerd Mar 31, 2025 vanaf Cape Canaveral Space Force Station

Loading…

Volgende Passages (komende 24 uur)

TLE

VersSource: CelesTrak SupGP

Epoch: Sep 14, 2026, 22:26 UTC

1 63417C 25065U   26257.93520833 -.00033279  00000+0 -12057-2 0  2573
2 63417  43.0022 118.2227 0001334 276.1835  57.6306 15.27585844    17

Volg STARLINK-33535 in realtime met AllMySat

Download on the App Store